Wind_Speed
36 36 35 34 30 30 31 31 32 30 30 31 33 33 37 38 43 47 49 52 51 50 49 47 48 50 56 58 66 73 78 80 76 71 61 49 52 52 46 38 27 41 46 52
36 36 35 34 33 33 32 31 33 32 33 33 36 33 39 40 45 47 49 49 47 46 47 46 47 50 56 58 64 73 79 82 77 75 60 54 50 46 41 28 18 31 47 54
40 38 37 36 36 34 33 32 34 35 35 37 37 37 38 40 44 46 49 43 41 42 44 44 47 49 55 59 64 71 79 81 80 75 64 59 52 38 29 25 14 25 41 55
43 42 42 40 41 38 36 35 35 34 36 36 35 39 35 42 44 48 46 38 37 40 41 43 47 50 55 60 62 69 79 80 82 77 64 57 52 35 22 9 5 17 32 55
46 46 45 43 41 40 38 38 39 36 34 35 35 37 37 41 44 48 39 35 35 36 39 42 48 51 55 60 60 66 75 79 82 80 71 58 50 39 25 12 3 9 23 39
51 48 46 48 46 44 45 42 39 37 37 38 38 38 41 43 45 46 35 37 35 38 39 42 46 49 53 58 61 63 72 78 80 83 75 59 51 42 30 16 9 5 16 29
55 51 49 49 49 48 47 45 44 41 42 42 41 41 40 45 47 44 33 33 35 38 39 40 44 47 51 54 60 63 68 74 78 82 79 63 53 49 42 26 17 6 10 24
57 55 54 51 51 51 50 49 49 46 44 44 44 44 41 47 46 39 30 33 38 38 40 40 43 45 49 52 57 61 65 71 76 77 81 74 53 51 50 41 27 18 10 16
62 59 59 57 55 53 53 52 52 49 47 46 47 46 44 45 42 33 30 34 36 38 42 43 44 44 47 50 54 58 60 66 70 77 76 76 65 47 50 49 36 27 22 3
68 66 64 62 60 58 56 55 53 53 50 49 48 49 48 45 41 36 34 33 34 38 40 43 44 44 44 47 51 54 56 60 64 67 72 73 70 59 44 47 46 35 21 18
72 70 69 68 65 62 59 57 56 56 52 51 51 50 49 46 38 35 33 32 35 37 38 41 44 43 41 44 47 52 54 56 60 62 66 70 70 68 60 48 45 46 40 27
73 69 66 66 67 65 61 59 59 57 53 51 48 47 53 42 35 32 33 34 36 38 37 39 42 43 43 42 44 48 50 55 56 58 59 64 66 66 68 61 54 46 43 41
73 67 65 62 63 64 63 58 56 53 47 44 46 48 52 41 38 36 34 36 39 38 39 38 38 43 44 43 42 45 48 49 55 55 56 57 60 62 57 61 63 58 46 34
77 71 69 67 64 61 56 52 49 46 41 47 42 47 45 42 39 35 35 39 41 41 43 42 36 41 45 45 43 43 46 47 50 52 55 53 55 55 58 55 54 56 60 55
80 74 73 72 69 64 60 56 49 45 48 45 51 46 51 44 42 41 39 41 43 43 44 44 38 41 44 43 46 42 45 45 47 49 50 53 53 53 54 55 54 51 50 53
85 81 78 76 74 69 64 60 56 54 55 52 52 57 52 50 48 46 44 44 47 47 46 44 39 42 42 44 43 43 44 45 45 46 47 48 51 50 50 52 53 51 51 50
92 88 86 81 79 76 68 62 64 63 60 61 57 63 56 58 54 52 48 48 48 48 49 47 44 43 42 46 42 42 44 45 44 46 46 45 47 49 49 46 47 48 46 47
96 93 92 88 86 81 69 69 71 67 68 66 64 67 62 61 61 58 55 53 53 54 52 49 46 46 43 47 47 42 44 46 45 43 44 46 45 46 49 47 45 44 45 43
98 96 94 93 89 84 76 73 75 75 74 72 70 69 66 62 64 59 57 57 56 55 54 50 49 49 47 50 52 44 44 47 47 45 43 42 44 45 44 47 47 45 44 44
109 104 101 97 92 84 81 82 80 80 75 81 78 76 72 67 64 62 59 59 58 57 56 53 52 50 53 57 54 49 48 47 48 48 47 43 42 45 44 43 45 46 45 44
117 112 108 103 96 86 83 84 87 86 84 88 85 81 75 70 66 65 63 62 61 58 56 55 53 55 62 61 54 53 50 49 47 53 50 48 45 44 47 45 43 42 43 43
124 122 117 111 104 90 84 88 91 92 93 91 86 82 78 74 69 68 67 64 62 61 58 56 57 58 60 58 56 56 54 52 49 52 53 52 50 47 47 47 46 45 40 43
132 124 125 120 107 101 98 97 98 99 98 95 90 83 80 78 75 73 72 71 68 65 63 62 62 61 60 59 58 59 58 53 52 52 55 53 52 52 48 52 50 49 48 46
143 139 132 129 116 112 109 107 104 105 105 100 92 88 85 85 84 81 79 78 76 73 72 67 66 65 62 60 60 61 59 59 56 54 56 55 53 55 52 53 55 55 55 48
147 141 137 133 126 119 114 113 117 118 117 107 100 93 92 88 89 87 86 84 81 78 75 74 71 69 66 65 65 65 64 62 59 59 59 58 56 54 55 55 56 57 59 54
136 138 138 130 124 126 124 123 125 125 121 117 107 101 98 96 93 91 90 87 86 85 81 79 77 74 72 69 68 66 65 64 63 61 62 60 59 55 57 61 59 57 62 62
Wind_Direction
247 251 254 258 265 269 270 275 278 280 279 284 287 294 298 308 313 318 324 330 329 328 327 328 330 337 341 346 348 350 349 350 349 348 339 324 317 314 308 297 273 243 229 221
251 256 259 260 262 265 267 271 273 275 279 287 287 297 300 309 313 318 323 330 330 331 330 332 333 339 343 349 350 354 350 352 352 350 344 331 332 318 311 303 263 233 225 211
253 256 258 261 261 259 263 268 270 277 283 286 284 294 302 307 311 317 323 331 332 331 338 336 342 345 348 351 353 357 354 355 355 354 349 342 344 332 316 301 256 219 211 211
251 252 253 257 260 263 261 265 271 276 279 283 284 291 303 306 310 317 324 332 331 329 339 343 347 347 352 354 356 359 356 357 358 358 357 346 348 350 346 329 240 210 204 205
248 250 251 252 254 259 258 266 272 277 281 282 285 291 300 301 309 317 323 331 333 328 337 343 345 349 352 357 358 1 358 1 360 5 3 352 0 2 3 21 11 201 209 206
246 249 250 251 255 254 259 266 270 272 274 281 285 291 294 299 308 315 317 326 332 332 332 341 345 347 351 356 1 1 360 3 2 6 8 360 8 18 18 27 35 199 199 201
247 247 250 252 254 256 259 264 268 273 273 279 283 289 292 297 305 312 312 325 331 330 329 340 342 345 350 353 1 2 1 3 7 6 11 9 17 22 31 33 42 76 175 190
251 250 248 249 253 256 259 262 265 269 271 277 280 285 287 292 303 306 309 322 325 330 330 337 342 343 348 351 358 5 3 3 11 9 9 14 21 26 30 35 42 50 101 164
250 250 252 252 253 254 257 260 263 266 268 274 280 282 285 292 300 299 307 317 323 326 332 336 338 341 343 350 354 2 5 5 9 12 10 14 20 32 37 35 33 39 38 181
252 251 253 254 255 256 255 260 264 267 269 275 279 281 285 291 294 293 304 313 319 324 331 336 337 340 342 346 351 358 6 7 9 16 13 12 21 26 40 43 43 40 46 68
252 252 254 255 256 256 258 259 266 267 270 273 278 277 279 286 291 291 302 308 315 324 329 334 336 337 342 341 349 354 359 7 7 14 17 15 17 23 31 40 42 45 46 45
249 252 255 256 256 257 257 261 264 262 268 275 274 272 274 280 289 296 299 305 308 321 323 327 334 335 338 339 342 349 356 359 8 10 17 16 19 23 27 35 37 35 37 41
250 250 252 254 255 257 258 261 262 263 266 268 267 265 270 277 286 295 301 299 304 314 317 325 332 335 334 335 339 341 350 355 359 4 11 13 17 20 25 31 38 40 40 35
247 248 250 252 254 256 255 258 262 261 259 256 261 260 264 274 285 291 296 294 299 306 313 324 328 331 332 332 333 337 340 351 353 357 2 9 11 16 19 26 32 39 44 44
244 245 247 249 251 253 255 256 257 255 254 257 258 264 266 276 283 285 286 291 293 301 309 319 323 324 333 328 331 333 336 341 347 352 354 359 6 10 15 18 22 27 33 39
243 243 244 246 249 250 253 257 260 258 259 260 262 264 272 275 279 281 283 285 290 298 304 311 312 322 327 325 325 331 330 333 338 344 348 351 354 3 6 10 15 17 20 22
244 244 245 245 247 249 252 257 257 258 259 260 263 265 269 273 277 279 283 286 290 295 299 304 310 313 320 320 321 325 328 327 331 335 339 346 348 352 358 4 6 9 13 16
244 245 245 247 248 249 251 253 258 258 260 261 262 264 268 271 274 278 283 284 287 294 297 301 304 308 314 314 316 317 319 323 323 328 332 337 343 344 346 352 357 0 3 6
242 245 248 248 249 249 249 252 255 260 260 262 262 264 266 269 273 276 279 283 288 290 294 297 300 303 305 306 310 311 313 314 318 320 323 329 334 337 340 343 349 349 353 357
242 244 245 247 248 249 250 252 253 256 259 259 260 262 265 266 269 275 278 280 283 285 291 294 298 299 296 298 304 305 308 308 312 313 315 318 322 328 332 334 336 343 343 346
245 244 245 244 244 245 249 252 254 255 255 258 260 262 263 264 266 269 272 275 278 283 287 288 290 285 289 294 300 300 303 301 307 306 306 311 314 317 320 326 328 334 333 336
246 247 244 244 244 243 244 246 249 251 253 256 257 260 262 262 264 266 269 271 273 276 277 278 280 282 286 290 294 296 296 300 301 301 300 305 309 309 312 317 321 322 323 326
250 248 250 247 244 242 241 243 245 249 251 253 255 257 260 262 263 264 266 268 270 271 274 276 278 280 284 286 289 291 291 296 295 296 296 300 302 305 307 310 314 318 318 319
247 249 249 251 247 246 245 245 246 246 248 249 252 254 257 259 261 263 265 268 269 271 273 275 276 276 277 280 284 284 285 289 291 291 292 295 298 299 300 303 308 312 314 315
245 246 249 250 252 252 250 248 249 248 248 248 249 251 253 256 259 261 263 265 267 269 271 272 273 274 275 278 280 281 281 284 286 287 288 289 293 294 297 299 302 306 310 309
245 247 249 251 250 251 252 251 251 252 253 252 250 251 253 256 257 259 260 262 265 267 268 271 271 272 274 275 277 277 276 278 280 283 284 285 289 289 291 295 297 299 303 306
Height
10721 10723 10725 10727 10729 10729 10730 10730 10729 10730 10729 10728 10727 10727 10724 10721 10717 10710 10703 10696 10686 10678 10670 10660 10650 10639 10628 10616 10601 10581 10562 10540 10517 10499 10480 10461 10446 10432 10422 10417 10423 10427 10432 10442
10714 10716 10719 10720 10722 10722 10722 10723 10722 10723 10722 10722 10721 10721 10717 10714 10710 10704 10698 10691 10681 10673 10666 10656 10646 10635 10624 10612 10596 10577 10556 10534 10514 10494 10473 10454 10437 10420 10407 10404 10407 10412 10418 10430
10707 10708 10711 10713 10714 10715 10716 10716 10715 10716 10716 10715 10714 10714 10711 10708 10703 10698 10692 10686 10677 10670 10663 10653 10643 10632 10620 10607 10591 10574 10555 10534 10511 10489 10465 10443 10430 10414 10400 10395 10397 10403 10412 10421
10699 10700 10702 10705 10706 10708 10708 10708 10708 10709 10709 10708 10708 10705 10707 10701 10697 10693 10687 10680 10673 10666 10659 10650 10639 10629 10616 10603 10588 10572 10555 10533 10511 10487 10464 10441 10424 10410 10399 10392 10393 10399 10409 10418
10689 10691 10693 10696 10698 10700 10700 10701 10702 10701 10701 10699 10701 10699 10698 10695 10690 10686 10681 10675 10668 10662 10655 10647 10637 10625 10614 10602 10587 10573 10557 10535 10512 10489 10464 10443 10426 10411 10401 10395 10394 10398 10405 10413
10679 10680 10683 10686 10689 10691 10692 10694 10695 10694 10694 10693 10693 10693 10691 10687 10684 10680 10675 10670 10664 10657 10652 10644 10634 10623 10611 10600 10588 10572 10557 10538 10516 10494 10470 10448 10431 10417 10406 10401 10398 10400 10404 10411
10665 10670 10672 10675 10678 10680 10682 10685 10687 10688 10686 10686 10685 10685 10686 10681 10677 10674 10670 10665 10660 10654 10648 10640 10631 10621 10610 10598 10587 10572 10559 10542 10521 10500 10481 10458 10439 10426 10415 10409 10407 10407 10409 10415
10654 10658 10660 10664 10666 10670 10673 10675 10677 10679 10678 10678 10678 10678 10678 10674 10671 10668 10664 10660 10656 10650 10643 10637 10629 10619 10609 10597 10587 10575 10560 10545 10527 10508 10490 10472 10451 10437 10425 10421 10417 10418 10419 10423
10639 10645 10648 10651 10655 10660 10663 10665 10666 10670 10671 10671 10669 10669 10669 10668 10665 10662 10658 10654 10650 10645 10640 10633 10625 10618 10608 10597 10586 10577 10564 10549 10534 10518 10501 10486 10468 10452 10442 10434 10430 10428 10430 10432
10625 10631 10635 10639 10643 10647 10650 10653 10657 10660 10663 10664 10662 10658 10659 10659 10658 10656 10653 10648 10644 10640 10635 10629 10622 10615 10607 10596 10585 10576 10567 10556 10541 10529 10513 10497 10484 10468 10456 10448 10442 10438 10438 10438
10609 10616 10621 10625 10630 10634 10639 10642 10645 10649 10653 10654 10654 10649 10648 10650 10650 10648 10646 10642 10638 10634 10631 10625 10618 10611 10604 10594 10585 10576 10566 10559 10548 10534 10523 10508 10494 10480 10468 10457 10453 10450 10448 10446
10591 10601 10607 10611 10614 10621 10626 10630 10633 10636 10642 10644 10645 10643 10635 10640 10642 10641 10640 10636 10632 10629 10625 10621 10615 10607 10601 10594 10583 10576 10568 10558 10552 10541 10532 10521 10506 10494 10481 10471 10462 10455 10453 10453
10578 10588 10590 10597 10601 10606 10612 10615 10620 10626 10632 10634 10633 10631 10623 10630 10633 10633 10631 10628 10624 10622 10619 10616 10611 10604 10597 10591 10583 10574 10567 10561 10550 10545 10535 10527 10519 10508 10498 10487 10477 10468 10463 10459
10559 10572 10577 10581 10587 10592 10600 10603 10609 10615 10621 10617 10622 10615 10616 10620 10624 10624 10622 10618 10616 10615 10612 10610 10605 10600 10595 10588 10581 10573 10564 10559 10552 10544 10538 10532 10525 10517 10508 10499 10491 10483 10474 10467
10545 10555 10558 10564 10571 10578 10586 10591 10599 10606 10604 10610 10603 10610 10602 10612 10615 10614 10612 10610 10606 10606 10605 10602 10599 10595 10590 10585 10578 10572 10565 10558 10552 10544 10538 10531 10525 10519 10512 10504 10497 10492 10487 10482
10528 10537 10541 10548 10555 10563 10572 10580 10588 10589 10590 10596 10598 10589 10599 10602 10603 10602 10602 10602 10598 10597 10597 10594 10590 10588 10585 10581 10575 10570 10564 10558 10551 10546 10540 10533 10527 10522 10514 10506 10500 10494 10488 10484
10506 10517 10524 10533 10537 10546 10562 10571 10570 10573 10577 10579 10585 10574 10589 10586 10590 10591 10594 10592 10590 10588 10586 10585 10581 10580 10578 10574 10570 10566 10561 10556 10551 10544 10539 10534 10527 10520 10516 10512 10506 10501 10494 10489
10485 10496 10501 10515 10520 10531 10556 10555 10553 10562 10560 10565 10569 10562 10571 10573 10574 10577 10583 10581 10578 10578 10577 10574 10572 10570 10569 10566 10563 10559 10555 10551 10548 10544 10537 10531 10527 10521 10516 10512 10508 10503 10499 10494
10466 10476 10482 10490 10506 10522 10537 10544 10542 10541 10545 10547 10551 10551 10556 10560 10557 10566 10568 10568 10567 10565 10565 10565 10562 10559 10559 10558 10556 10551 10548 10544 10541 10539 10535 10529 10523 10519 10515 10509 10505 10501 10498 10494
10440 10452 10459 10471 10487 10507 10520 10522 10526 10527 10533 10522 10530 10534 10542 10549 10548 10550 10554 10554 10554 10554 10552 10552 10552 10549 10547 10547 10547 10543 10539 10535 10533 10530 10527 10525 10521 10515 10512 10508 10502 10498 10494 10491
10410 10423 10434 10448 10465 10491 10502 10502 10500 10509 10512 10498 10510 10520 10527 10533 10535 10536 10538 10540 10542 10542 10541 10539 10539 10538 10536 10536 10535 10532 10530 10525 10525 10521 10518 10516 10514 10511 10506 10502 10499 10495 10490 10486
10383 10389 10405 10422 10443 10476 10489 10482 10479 10474 10478 10485 10494 10501 10509 10515 10519 10520 10522 10525 10527 10529 10531 10530 10529 10528 10526 10524 10522 10520 10517 10517 10516 10512 10507 10506 10503 10500 10498 10495 10491 10488 10484 10481
10351 10371 10378 10393 10429 10446 10457 10456 10453 10457 10459 10463 10475 10486 10493 10498 10503 10505 10505 10507 10510 10514 10515 10517 10516 10515 10514 10512 10509 10506 10502 10505 10505 10502 10497 10495 10493 10489 10487 10484 10481 10478 10474 10470
10322 10340 10350 10362 10400 10417 10428 10433 10437 10434 10430 10443 10457 10468 10475 10478 10482 10484 10487 10489 10492 10495 10498 10500 10500 10500 10500 10499 10498 10493 10492 10492 10493 10490 10486 10484 10482 10477 10475 10473 10470 10467 10463 10460
10296 10311 10329 10348 10370 10383 10400 10408 10400 10399 10403 10422 10437 10449 10453 10460 10461 10467 10468 10470 10474 10476 10478 10480 10481 10483 10484 10485 10483 10481 10479 10479 10479 10477 10473 10471 10470 10466 10462 10461 10459 10454 10451 10447
10280 10301 10306 10333 10346 10345 10352 10357 10358 10362 10381 10394 10416 10426 10431 10437 10441 10446 10450 10452 10455 10457 10459 10459 10461 10465 10468 10468 10467 10465 10463 10463 10464 10462 10459 10456 10455 10453 10451 10447 10445 10443 10438 10435